Tracking 22441 objects as of 28-Feb-2021
HD Live streaming from Space Station
objects crossing your sky now

FREGAT DEB

Track FREGAT DEB now!
10-day predictions


NORAD ID: 47112
Int'l Code: 2011-037NH
Perigee: 449.3 km
Apogee: 3,509.1 km
Inclination: 51.4 °
Period: 126.6 minutes
Semi major axis: 8350 km
RCS: Unknown
Launch date: July 18, 2011
Source: Commonwealth of Independent States (former USSR) (CIS)
Launch site: TYURATAM MISSILE AND SPACE COMPLEX (TTMTR)

Note: This is SATELLITE DEBRIS
aabbcc
Your satellite tracking list
Your tracking list is empty




NASA's NSSDC Master Catalog

Two Line Element Set (TLE):
1 47112U 11037NH  21059.37592820  .00002848  00000-0  71227-3 0  9994
2 47112  51.4122  54.1071 1832179 207.1317 142.0949 11.37775501 24958
Source of the keplerian elements: AFSPC